Meteo pe oră la Dabrowki

Astăzi, 11 Aprilie, Duminică

Timp Temperatura Precipitaţii Vânt Presiune Umiditate
00:00 +7°C° 0 mm 1 m/s 753 mmHg 92%
01:00 +7°C° 0 mm 1 m/s 753 mmHg 92%
02:00 +8°C° 0 mm 1 m/s 753 mmHg 91%
03:00 +7°C° 0 mm 2 m/s 752 mmHg 91%
04:00 +7°C° 0 mm 2 m/s 752 mmHg 90%
05:00 +7°C° 0 mm 2 m/s 752 mmHg 89%
06:00 +8°C° 0 mm 3 m/s 752 mmHg 87%
07:00 +9°C° 0 mm 3 m/s 752 mmHg 85%
08:00 +11°C° 0 mm 4 m/s 752 mmHg 76%
09:00 +13°C° 0 mm 5 m/s 752 mmHg 67%
10:00 +15°C° 0 mm 6 m/s 751 mmHg 58%
11:00 +16°C° 0 mm 6 m/s 751 mmHg 54%
12:00 +17°C° 0 mm 7 m/s 751 mmHg 50%
13:00 +17°C° 0 mm 7 m/s 750 mmHg 47%
14:00 +17°C° 0 mm 6 m/s 750 mmHg 49%
15:00 +17°C° 0 mm 5 m/s 750 mmHg 51%
16:00 +17°C° 0 mm 5 m/s 750 mmHg 53%
17:00 +16°C° 0 mm 5 m/s 750 mmHg 55%
18:00 +14°C° 0 mm 5 m/s 750 mmHg 57%
19:00 +13°C° 0 mm 5 m/s 751 mmHg 59%
20:00 +12°C° 0 mm 5 m/s 751 mmHg 63%
21:00 +12°C° 0 mm 5 m/s 751 mmHg 67%
22:00 +10°C° 0 mm 6 m/s 751 mmHg 71%
23:00 +10°C° 0 mm 5 m/s 751 mmHg 73%

Mâine, 12 Aprilie, Luni

Timp Temperatura Precipitaţii Vânt Presiune Umiditate
00:00 +10°C° 0 mm 5 m/s 751 mmHg 75%
01:00 +9°C° 0 mm 5 m/s 751 mmHg 77%
02:00 +10°C° 0 mm 4 m/s 751 mmHg 81%
03:00 +10°C° 0 mm 4 m/s 751 mmHg 85%
04:00 +10°C° 0 mm 4 m/s 751 mmHg 89%
05:00 +10°C° 0 mm 4 m/s 751 mmHg 86%
06:00 +10°C° 0 mm 4 m/s 751 mmHg 83%
07:00 +11°C° 0 mm 4 m/s 751 mmHg 80%
08:00 +12°C° 0 mm 4 m/s 751 mmHg 74%
09:00 +13°C° 0 mm 4 m/s 751 mmHg 68%
10:00 +14°C° 0 mm 4 m/s 752 mmHg 61%
11:00 +14°C° 0 mm 4 m/s 752 mmHg 63%
12:00 +13°C° 0 mm 5 m/s 752 mmHg 65%
13:00 +13°C° 0 mm 5 m/s 752 mmHg 67%
14:00 +10°C° 0.3 mm 5 m/s 752 mmHg 74%
15:00 +8°C° 0.3 mm 6 m/s 752 mmHg 80%
16:00 +5°C° 0.3 mm 6 m/s 753 mmHg 86%
17:00 +4°C° 0.3 mm 6 m/s 754 mmHg 88%
18:00 +3°C° 0.3 mm 6 m/s 754 mmHg 90%
19:00 +2°C° 0.3 mm 6 m/s 755 mmHg 92%
20:00 +1°C° 0.1 mm 6 m/s 756 mmHg 92%
21:00 +1°C° 0.1 mm 5 m/s 756 mmHg 93%
22:00 +1°C° 0.1 mm 5 m/s 756 mmHg 94%
23:00 +1°C° 0 mm 4 m/s 756 mmHg 92%

Poimâine, 13 Aprilie, Marţi

Timp Temperatura Precipitaţii Vânt Presiune Umiditate
00:00 +1°C° 0 mm 4 m/s 756 mmHg 89%
01:00 +2°C° 0 mm 3 m/s 757 mmHg 87%
02:00 +2°C° 0 mm 3 m/s 757 mmHg 86%
03:00 +2°C° 0 mm 3 m/s 757 mmHg 85%
04:00 +2°C° 0 mm 3 m/s 757 mmHg 84%
05:00 +2°C° 0 mm 3 m/s 757 mmHg 80%
06:00 +3°C° 0 mm 3 m/s 758 mmHg 77%
07:00 +3°C° 0 mm 4 m/s 758 mmHg 73%
08:00 +4°C° 0 mm 4 m/s 758 mmHg 65%
09:00 +5°C° 0 mm 4 m/s 758 mmHg 57%
10:00 +6°C° 0 mm 4 m/s 759 mmHg 49%
11:00 +7°C° 0 mm 4 m/s 758 mmHg 47%
12:00 +7°C° 0 mm 4 m/s 758 mmHg 45%
13:00 +8°C° 0 mm 4 m/s 758 mmHg 43%
14:00 +8°C° 0 mm 4 m/s 758 mmHg 44%
15:00 +7°C° 0 mm 4 m/s 758 mmHg 45%
16:00 +7°C° 0 mm 4 m/s 757 mmHg 45%
17:00 +8°C° 0 mm 3 m/s 757 mmHg 47%
18:00 +7°C° 0 mm 2 m/s 757 mmHg 49%
19:00 +6°C° 0 mm 2 m/s 758 mmHg 51%
20:00 +6°C° 0 mm 2 m/s 758 mmHg 55%
21:00 +5°C° 0 mm 2 m/s 758 mmHg 58%
22:00 +5°C° 0 mm 2 m/s 758 mmHg 62%
23:00 +4°C° 0 mm 2 m/s 758 mmHg 65%

14 Aprilie, Miercuri

Timp Temperatura Precipitaţii Vânt Presiune Umiditate
00:00 +4°C° 0 mm 2 m/s 757 mmHg 68%
01:00 +4°C° 0 mm 2 m/s 757 mmHg 71%
02:00 +3°C° 0 mm 2 m/s 757 mmHg 72%
03:00 +3°C° 0 mm 2 m/s 757 mmHg 73%
04:00 +3°C° 0 mm 2 m/s 757 mmHg 75%
05:00 +2°C° 0 mm 3 m/s 757 mmHg 74%
06:00 +3°C° 0 mm 3 m/s 757 mmHg 73%
07:00 +3°C° 0 mm 4 m/s 757 mmHg 73%
08:00 +4°C° 0 mm 4 m/s 757 mmHg 69%
09:00 +4°C° 0 mm 4 m/s 757 mmHg 65%
10:00 +5°C° 0 mm 5 m/s 757 mmHg 62%
11:00 +5°C° 0 mm 5 m/s 756 mmHg 58%
12:00 +5°C° 0 mm 6 m/s 756 mmHg 54%
13:00 +5°C° 0 mm 6 m/s 756 mmHg 50%
14:00 +5°C° 0 mm 6 m/s 756 mmHg 53%
15:00 +5°C° 0 mm 6 m/s 755 mmHg 56%
16:00 +5°C° 0 mm 6 m/s 755 mmHg 58%
17:00 +5°C° 0 mm 6 m/s 755 mmHg 61%
18:00 +4°C° 0 mm 6 m/s 756 mmHg 64%
19:00 +3°C° 0 mm 6 m/s 756 mmHg 66%
20:00 +2°C° 0 mm 6 m/s 756 mmHg 69%
21:00 +2°C° 0 mm 6 m/s 756 mmHg 71%
22:00 +1°C° 0 mm 6 m/s 756 mmHg 74%
23:00 +1°C° 0 mm 6 m/s 755 mmHg 75%

15 Aprilie, Joi

Timp Temperatura Precipitaţii Vânt Presiune Umiditate
00:00 +1°C° 0 mm 6 m/s 755 mmHg 76%
01:00 +1°C° 0 mm 6 m/s 755 mmHg 77%
02:00 +1°C° 0.2 mm 6 m/s 755 mmHg 82%
03:00 -1°C° 0.2 mm 6 m/s 755 mmHg 86%
04:00 -1°C° 0.2 mm 6 m/s 755 mmHg 90%
05:00 -1°C° 0.3 mm 6 m/s 755 mmHg 92%
06:00 -1°C° 0.3 mm 6 m/s 755 mmHg 93%
07:00 -1°C° 0.3 mm 6 m/s 755 mmHg 95%
08:00 -1°C° 0.2 mm 6 m/s 755 mmHg 95%
09:00 -1°C° 0.2 mm 6 m/s 755 mmHg 95%
10:00 -1°C° 0.2 mm 6 m/s 755 mmHg 95%
11:00 +1°C° 0.1 mm 6 m/s 756 mmHg 93%
12:00 +1°C° 0.1 mm 6 m/s 756 mmHg 92%
13:00 +1°C° 0.1 mm 6 m/s 756 mmHg 91%
14:00 +1°C° 0 mm 6 m/s 756 mmHg 91%
15:00 +2°C° 0 mm 6 m/s 756 mmHg 92%
16:00 +2°C° 0 mm 6 m/s 756 mmHg 92%
17:00 +2°C° 0.1 mm 5 m/s 756 mmHg 90%
18:00 +3°C° 0.1 mm 4 m/s 756 mmHg 87%
19:00 +3°C° 0.1 mm 3 m/s 757 mmHg 84%
20:00 +3°C° 0 mm 3 m/s 757 mmHg 84%
21:00 +3°C° 0 mm 3 m/s 757 mmHg 85%
22:00 +2°C° 0 mm 3 m/s 757 mmHg 85%
23:00 +2°C° 0 mm 3 m/s 757 mmHg 85%

16 Aprilie, Vineri

Timp Temperatura Precipitaţii Vânt Presiune Umiditate
00:00 +1°C° 0 mm 4 m/s 756 mmHg 84%
01:00 +1°C° 0 mm 4 m/s 756 mmHg 84%
02:00 0°C° 0 mm 4 m/s 756 mmHg 85%
03:00 0°C° 0 mm 4 m/s 756 mmHg 85%
04:00 0°C° 0 mm 4 m/s 757 mmHg 86%
05:00 0°C° 0 mm 4 m/s 757 mmHg 89%
06:00 0°C° 0 mm 4 m/s 757 mmHg 91%
07:00 +1°C° 0 mm 4 m/s 757 mmHg 93%
08:00 +1°C° 0 mm 4 m/s 757 mmHg 94%
09:00 +1°C° 0 mm 4 m/s 757 mmHg 95%
10:00 +1°C° 0 mm 4 m/s 758 mmHg 96%
11:00 +1°C° 0.1 mm 4 m/s 758 mmHg 96%
12:00 +1°C° 0.1 mm 4 m/s 758 mmHg 96%
13:00 +1°C° 0.1 mm 4 m/s 758 mmHg 96%
14:00 +1°C° 0.2 mm 4 m/s 758 mmHg 96%
15:00 +3°C° 0.2 mm 3 m/s 759 mmHg 95%
16:00 +3°C° 0.2 mm 3 m/s 759 mmHg 94%
17:00 +3°C° 0 mm 3 m/s 759 mmHg 94%
18:00 +3°C° 0 mm 3 m/s 759 mmHg 95%
19:00 +3°C° 0 mm 3 m/s 759 mmHg 95%
20:00 +4°C° 0.1 mm 3 m/s 760 mmHg 95%
21:00 +4°C° 0.1 mm 3 m/s 760 mmHg 95%
22:00 +4°C° 0.1 mm 3 m/s 760 mmHg 95%
23:00 +4°C° 0 mm 3 m/s 760 mmHg 95%
Arată mai mult

Formular de consimțământ

Meteoprog și furnizorii noștri de servicii pot stoca și accesa date personale, precum cookies, identificatori de dispozitiv sau alte tehnologii similare pe dispozitivul dumneavoastră și procesa astfel de date pentru a personaliza conținutul și reclamele, dar și pentru a oferi caracteristici de social media și pentru a analiza traficul.

  • Stocarea și/sau accesarea informațiilor pe dispozitivul dumneavoastră

    Cookies, identificatori de dispozitiv sau alte informații pot fi stocate sau accesate pe dispozitiv în scopurile indicate mai sus.

  • Reclame și conținut personalizat, evaluarea reclamelor și a conținutului, informații despre audiențe și dezvoltarea produselor

    Reclamele și conținutul pot fi personalizate pe baza unui profil. Pot fi adăugate date suplimentare pentru a personaliza mai bine reclamele și conținutul. Performanța reclamelor și conținutului poate fi măsurată. Pot fi obținute informații despre utilizatorii care au văzut reclamele și conținutul. Aceste date pot fi utilizate pentru a dezvolta sau îmbunătăți experiența utilizatorilor, sistemele și software-ul.

Dând clic pe ‘Sunt de acord’, permiteți utilizarea cookie-urilor menționate, a identificatorilor de dispozitiv, balizelor web sau altor tehnologii similare. Setările pot fi modificate din browser-ul dispozitivului dumneavoastră.

În anumite scopuri, interesele legitime pot prima asupra consimțământului. Puteți citi mai multe informații în acest sens în Politica privind Confidențialitatea Datelor și Cookie.